Starlink 32558

operational
NORAD ID: 62169 Int'l Des: 2024-225 Owner: SPXS Country: US Constellation: starlink
LEOCIRCULAR

About Starlink 32558

Description loading...

Live Position

Loading 3D Globe...

Upcoming Passes

Altitude History

Altitude vs Time

uPlot chart will show altitude changes over time

Two-Line Element Set

1 62169U 24225G 25257.58335648 -.00050241 00000-0 -42304-2 0 9991
2 62169 70.0007 248.5300 0003121 273.0137 122.0289 14.98354035 5722
Epoch: Sep 14, 2025 • Age: 20 hours

Current Status

Altitude 577.5 km
Velocity 7.57 km/s
Sub-Earth Point 33.82°N, 87.86°W
Launch Date Nov 30, 2024
Age 0.7 years
Type internet

Technical Details

Classification Payload
Mass 730.00 kg
Dry Mass 700.00 kg
Total Mass 730.00 kg
Length 0.30 m
Diameter 4.10 m
Span 29.00 m
Shape Box + pan
Manufacturer SPXS
Bus Type Starlink V2M
Phase Status In Orbit
Owner/State SPXS/US

Large Constellations

Loading constellations...